Location: Unspecified
(0.0000°N, 0.0000°E)
Time: 10:10:18
(UTC+00:00)

OTV 5 (USA 277) - Pass Details

Date: 08 October 2017
Orbit: 404 x 417 km, 43.0° (Epoch: 07 September)

Event Time Altitude Azimuth Distance (km) Brightness Sun altitude
Exits shadow 04:20:35 61° 118° (ESE) 458 ? -21.6°
Drops below altitude 10° 04:23:23 10° 133° (SE) 1,450 ? -20.9°
Sets 04:25:28 0° 134° (SE) 2,310 ? -20.4°
